Theta_e
309 309 309 308 308 308 308 308 308 308 308 308 309 309 309 309 309 309 310 310 310 311 311 311 312 312 312 312 312 312 312 312 312 312 312 312 311 311 311 310 310 310 311 311 311 311 310 310 310 311 310 309 308 308 307 307 307 305 304 303 302 302 301 300 301 301 299 296 296 296 295 293 291 290 290 288 288 288 288 287 287 285 284 284 284
309 309 309 309 309 309 309 308 308 308 308 308 308 308 308 308 308 308 309 309 309 309 310 310 310 311 311 311 311 311 312 311 311 311 311 311 311 311 310 309 309 309 310 310 310 310 310 309 309 310 309 309 308 308 307 307 306 305 304 303 302 302 301 300 300 300 298 294 293 294 292 291 290 289 289 288 287 287 287 286 285 285 284 284 284
307 308 309 310 310 309 308 308 307 308 307 307 307 307 308 307 307 307 308 308 308 308 309 309 309 310 310 310 310 311 311 311 311 311 310 310 310 310 310 309 309 309 309 309 309 309 309 308 308 308 308 308 307 307 307 306 306 304 304 303 302 301 301 300 299 299 298 293 291 292 291 289 289 288 288 287 287 286 286 285 284 284 284 284 284
307 309 309 310 310 309 308 308 307 307 307 307 307 307 307 307 307 307 307 307 307 307 308 308 308 308 309 309 309 310 310 310 310 310 310 310 310 309 309 308 308 308 308 308 309 308 308 307 307 306 306 306 307 307 306 306 305 304 303 303 302 301 301 300 298 299 298 293 289 290 290 288 287 287 286 286 285 285 285 285 284 285 285 285 284
308 309 309 310 310 309 309 309 308 307 307 307 307 307 307 307 307 307 306 306 307 307 307 307 307 307 307 308 308 309 309 309 309 309 309 309 309 309 308 308 307 307 307 308 308 308 308 307 306 305 305 305 305 305 305 305 304 304 303 302 301 301 300 299 298 297 297 294 289 287 287 287 286 286 285 285 285 284 285 285 285 285 285 285 285
308 308 308 309 309 309 309 309 308 308 307 307 307 307 307 306 306 307 306 306 306 306 306 306 306 306 306 307 307 307 308 308 308 309 309 309 309 308 308 307 307 307 307 307 308 308 307 306 306 305 305 304 305 305 304 304 304 303 302 301 301 300 298 297 297 296 295 294 290 287 285 285 285 285 284 285 285 284 284 285 285 285 285 285 286
307 308 308 308 308 308 308 308 307 307 307 307 307 307 307 306 306 306 306 305 305 305 305 305 305 305 305 306 306 306 307 307 307 308 308 308 308 308 307 306 306 306 307 307 308 308 306 305 305 305 304 304 304 305 304 303 303 302 302 301 300 299 297 296 295 295 293 292 290 287 285 285 285 284 284 285 285 285 285 285 285 285 285 286 287
306 307 307 307 306 306 305 306 306 306 306 306 306 307 306 306 306 306 306 305 305 305 304 304 304 304 304 304 305 305 305 306 306 306 307 307 307 307 306 306 305 306 306 307 307 307 306 305 304 304 304 304 304 304 304 303 303 302 301 301 299 297 296 295 294 293 292 291 288 286 285 284 284 284 284 284 285 285 285 285 285 285 286 286 286
304 304 304 304 304 304 303 304 304 304 305 305 305 306 305 305 305 305 305 305 305 305 304 304 304 304 304 304 304 304 304 305 305 306 306 307 306 306 305 305 305 305 305 306 305 305 305 304 304 303 303 303 303 303 303 302 302 302 301 300 298 297 295 294 293 292 291 290 288 286 285 284 284 284 284 284 285 285 286 286 286 286 286 286 286
301 301 301 301 301 301 300 301 301 302 302 302 302 303 303 304 304 304 304 304 304 304 303 303 303 303 304 303 303 303 303 304 304 305 305 306 306 305 304 304 304 304 304 304 304 304 304 303 303 303 303 302 302 301 301 301 301 301 301 300 299 297 294 293 292 291 290 289 288 286 286 285 284 284 285 285 286 286 286 286 286 285 285 285 284
301 301 300 299 299 298 298 298 298 298 298 298 298 299 300 301 301 302 303 302 302 302 302 302 303 302 303 303 302 302 302 303 303 304 305 305 304 304 303 303 304 304 304 304 304 303 303 303 302 302 302 301 301 301 300 300 300 300 299 299 298 297 295 293 291 290 290 289 288 287 286 285 285 285 285 285 286 286 286 286 286 285 284 283 283
304 303 301 300 300 299 299 298 298 298 298 297 297 297 297 298 298 299 300 300 300 300 300 301 301 301 301 301 302 302 302 302 302 303 303 303 303 303 302 302 302 303 303 303 303 303 302 302 302 302 301 301 300 300 299 299 299 298 297 297 296 296 296 295 293 291 290 289 288 287 287 286 285 285 286 286 286 287 287 287 286 286 284 284 283
305 304 303 303 302 301 301 301 301 300 299 299 298 298 297 297 297 297 298 298 298 299 299 299 299 300 300 300 300 301 301 302 302 302 302 302 302 302 301 302 301 302 302 302 302 302 301 301 301 300 300 299 299 298 298 297 297 296 295 294 294 294 294 294 294 293 292 290 288 287 287 287 286 285 286 287 287 287 286 286 286 286 285 284 284
304 303 303 303 303 302 302 302 302 301 301 300 300 300 299 298 297 297 297 297 297 298 298 298 299 299 299 299 299 300 300 301 301 301 302 301 301 301 300 301 300 300 301 301 300 300 300 300 300 299 298 298 298 297 297 296 295 294 293 292 292 291 291 290 291 291 291 291 290 289 288 288 288 287 287 288 288 288 287 286 285 285 285 285 283
302 302 302 303 303 302 302 301 301 301 301 300 300 300 299 298 298 298 297 297 297 297 297 298 298 299 298 298 298 299 299 299 300 300 301 301 301 300 300 299 299 299 299 299 299 299 299 299 298 297 297 297 297 297 296 294 294 292 291 290 289 289 289 289 289 290 290 290 290 290 289 289 290 289 288 288 289 290 289 288 287 286 285 283 282
301 300 301 302 302 301 300 300 300 300 299 299 299 298 297 297 297 296 296 296 296 296 296 297 297 297 298 298 298 298 299 299 298 299 300 300 299 299 299 298 298 298 298 298 298 298 298 297 296 296 295 295 295 295 294 293 292 290 289 288 288 288 288 289 289 290 290 290 290 291 291 290 290 290 289 289 289 289 289 288 286 285 283 281 280
300 299 300 301 301 300 299 298 298 297 297 296 296 296 296 295 295 295 295 295 295 295 295 296 296 296 296 297 297 297 298 298 298 298 298 298 298 297 297 297 297 296 296 297 297 297 296 296 295 294 294 294 294 293 292 291 290 289 288 288 288 288 289 289 290 290 290 290 291 291 291 291 291 291 290 290 289 289 288 285 283 282 281 280 279
298 299 300 300 300 300 299 297 296 296 295 295 294 294 294 294 294 294 293 293 294 294 294 295 295 295 295 296 296 296 296 297 297 297 297 297 297 296 296 296 295 295 295 295 295 295 294 294 293 293 293 293 292 292 291 290 289 288 288 288 288 288 289 289 290 290 290 290 290 290 290 290 290 290 289 288 288 288 287 285 283 282 281 280 280
296 297 298 299 300 300 299 298 296 295 294 294 294 293 293 293 293 293 292 292 292 293 293 293 294 294 294 295 295 295 295 296 296 296 296 296 296 295 295 294 294 294 294 294 294 293 293 292 292 291 292 292 292 291 290 289 288 288 288 288 288 288 288 290 290 288 288 287 287 288 288 288 288 288 287 287 286 286 286 285 284 283 282 280 280
294 295 296 298 299 299 298 298 296 294 293 293 293 293 293 292 292 292 292 292 291 292 292 292 293 293 293 293 294 294 294 294 295 295 295 295 294 294 293 293 293 293 293 293 293 292 291 291 290 291 291 290 290 290 290 288 288 288 288 288 288 287 288 289 289 288 287 287 287 287 286 286 286 286 285 284 284 283 283 283 283 283 282 281 280
293 294 296 297 298 298 298 298 297 295 294 292 293 293 293 292 292 291 291 291 291 291 291 291 291 292 292 292 293 293 293 293 293 294 294 293 293 292 292 292 292 292 292 292 291 290 290 289 289 289 289 289 289 289 289 288 288 288 288 288 288 288 288 288 287 287 287 287 286 286 285 284 284 284 283 283 283 282 282 282 282 282 281 281 280
291 292 294 296 297 298 298 297 296 295 294 292 292 293 293 292 291 291 290 290 290 290 290 290 290 291 291 291 292 292 292 292 292 292 292 292 292 292 291 291 291 291 291 291 290 289 288 288 288 288 288 288 288 289 288 288 288 288 288 288 288 288 288 287 286 287 287 286 285 284 284 283 283 283 283 283 282 282 282 282 281 281 281 280 280
290 291 292 294 295 295 296 295 294 293 293 291 290 291 292 291 291 290 290 289 289 289 288 288 289 289 289 290 291 291 291 291 291 291 291 291 291 291 290 290 290 290 290 290 289 288 288 287 287 287 287 287 287 288 288 288 288 288 288 288 288 288 287 287 286 286 285 284 283 283 282 282 282 282 282 282 282 282 281 281 281 280 280 279 278
288 289 290 291 292 292 292 292 292 291 291 290 289 290 290 290 290 290 289 288 288 287 287 287 287 287 287 288 289 290 291 291 290 290 290 290 290 289 289 289 290 290 289 289 289 288 288 287 287 287 286 286 287 288 288 288 287 287 287 287 288 288 287 286 286 285 284 282 282 282 282 282 282 282 281 281 281 280 280 280 279 279 278 277 277
286 287 288 289 290 290 291 291 291 290 289 289 288 289 289 289 289 289 288 287 287 286 286 286 286 286 286 287 288 289 289 289 289 289 289 288 288 289 289 289 289 289 288 288 288 288 287 287 287 286 286 286 287 288 288 287 287 287 287 288 287 286 286 286 285 284 283 281 281 281 280 280 281 281 281 280 280 279 279 278 277 277 276 275 274
285 285 286 288 288 288 288 290 290 290 289 288 287 287 288 287 288 288 287 286 286 285 285 285 285 285 286 286 287 287 287 287 287 287 287 287 287 287 287 288 289 289 288 287 287 287 287 286 286 286 286 287 287 288 287 287 287 287 287 287 286 286 287 287 286 284 283 281 280 280 279 280 280 280 279 279 279 278 278 277 276 275 274 273 273
283 283 283 284 285 286 286 287 287 287 287 287 286 287 287 287 287 287 286 286 285 285 285 285 285 285 286 286 286 286 286 286 286 286 286 286 285 285 286 288 288 288 287 286 286 286 286 285 285 286 286 287 287 287 287 287 287 287 286 286 286 287 288 288 286 284 283 281 280 279 279 279 279 279 278 278 277 277 276 276 275 274 272 272 272
281 281 281 282 283 284 284 284 284 284 285 285 285 286 286 286 286 286 286 286 285 285 285 285 285 285 285 285 285 285 285 285 286 286 286 285 285 285 287 287 287 286 286 285 285 285 285 285 285 286 286 287 287 287 287 287 286 286 285 285 286 287 286 285 284 283 282 281 280 280 279 279 278 278 277 276 276 276 275 275 274 273 272 272 271
279 279 280 281 282 282 283 283 283 283 283 284 284 284 285 285 286 286 286 286 286 285 285 284 285 285 285 285 285 285 285 285 286 286 286 285 285 285 286 287 287 286 285 284 284 284 284 285 286 286 286 286 286 286 286 285 284 284 284 284 285 284 283 283 283 282 282 282 281 279 278 278 277 277 276 275 275 275 275 274 273 272 271 271 270
278 278 279 280 281 281 282 282 282 282 282 282 283 283 285 285 285 285 286 286 286 285 285 284 284 284 284 284 285 284 284 285 285 285 285 285 285 286 286 286 286 285 284 284 283 284 285 286 286 286 286 285 284 284 284 283 282 282 282 283 284 283 282 283 283 283 282 282 280 279 278 277 276 275 275 275 274 274 273 272 271 271 270 270 269
276 277 277 278 279 279 280 281 282 282 282 283 282 283 283 284 285 285 285 286 285 285 285 285 284 284 284 284 284 284 284 284 284 285 285 285 285 286 286 286 285 284 284 284 284 284 285 285 285 285 284 284 283 282 282 282 281 281 282 282 282 282 282 282 282 282 282 281 279 279 278 277 276 275 275 275 274 273 273 271 270 270 269 269 268
275 275 276 277 277 278 279 280 281 282 283 283 283 283 283 283 284 285 285 285 285 285 285 284 284 284 284 284 284 284 284 284 284 285 285 285 285 286 285 285 284 284 284 284 284 284 285 284 284 284 283 282 282 281 281 281 282 282 282 281 280 280 281 282 282 281 281 280 279 278 277 277 276 275 275 275 274 273 271 270 270 269 269 268 268
273 273 274 275 276 277 279 280 281 282 283 283 283 283 283 283 283 284 285 285 285 285 285 284 284 284 284 284 284 284 284 284 284 285 285 285 285 285 285 285 284 284 285 285 284 284 284 283 283 283 282 282 281 281 281 281 282 282 281 280 280 280 280 281 281 280 280 279 279 278 277 276 276 275 274 274 273 272 271 269 269 268 268 268 267
272 273 274 275 276 277 278 279 280 281 282 283 283 283 284 283 284 284 284 284 284 284 284 284 284 284 284 284 284 284 284 284 285 285 285 285 285 285 284 284 284 284 285 285 284 284 283 283 282 282 282 281 281 281 281 281 281 281 280 279 279 279 279 279 280 279 279 279 278 277 277 276 275 274 274 272 271 270 269 269 268 268 268 268 267
271 272 273 274 275 276 277 278 280 281 282 283 283 283 284 284 284 284 284 284 284 284 284 284 284 284 284 283 283 284 284 284 285 286 285 285 285 284 284 284 284 285 285 284 284 283 283 282 282 282 282 282 281 281 281 281 280 280 280 280 280 279 278 278 278 278 278 278 277 277 276 275 274 274 273 272 271 270 269 268 268 268 268 267 266
270 271 272 272 273 275 275 276 278 279 280 282 282 283 284 284 283 284 284 283 283 283 284 284 284 284 283 283 283 283 284 285 285 286 285 285 284 284 284 284 284 284 283 283 283 283 282 282 282 282 282 282 281 281 281 280 280 280 280 280 280 279 278 278 278 277 277 277 276 276 275 274 273 273 272 271 270 269 269 269 268 268 267 266 266
269 270 271 271 272 273 274 275 276 278 279 281 282 282 283 283 283 283 283 283 283 283 283 283 283 283 283 282 283 283 284 285 286 285 285 284 284 284 285 284 283 283 282 282 282 282 282 282 282 282 282 282 282 281 281 280 280 280 280 279 278 278 278 277 277 277 276 276 275 274 274 273 272 271 270 270 269 268 268 268 268 267 266 266 265
269 269 270 270 271 272 273 274 276 277 279 280 281 282 282 283 283 283 282 282 283 283 283 283 283 283 283 282 282 283 285 285 285 285 285 285 284 285 284 284 283 283 282 282 282 282 282 282 282 282 282 282 282 281 281 280 280 280 279 278 277 277 277 277 276 275 275 274 273 273 272 272 271 271 270 269 269 268 268 267 267 266 266 265 265
267 268 268 269 270 271 272 274 275 277 278 279 280 281 282 282 282 282 282 282 282 282 282 282 283 283 283 282 282 283 285 285 285 284 284 284 284 284 284 283 283 283 282 281 282 282 282 281 281 281 281 281 281 281 281 280 280 279 278 278 277 276 276 276 275 274 273 273 273 272 272 271 271 270 269 268 268 268 267 267 266 266 265 265 265
266 267 267 268 269 270 271 273 274 276 278 279 279 281 281 282 282 282 282 282 282 282 282 282 282 282 283 282 282 283 284 285 284 283 283 283 283 283 283 283 283 282 281 281 281 281 281 281 281 281 281 281 281 280 280 280 279 278 278 277 277 276 276 275 275 274 273 273 272 272 271 271 270 269 268 267 267 267 267 267 266 266 265 265 265
265 266 266 267 268 269 270 271 273 275 277 278 279 280 281 281 281 282 281 281 281 281 281 282 282 282 282 283 282 282 283 284 283 282 282 282 282 282 282 282 282 282 281 281 281 281 280 280 280 281 281 280 280 280 279 278 278 277 277 276 276 276 275 275 274 274 274 273 272 272 271 270 269 268 267 267 267 266 266 266 266 266 265 265 264
264 265 266 266 267 268 269 270 272 273 275 276 277 279 280 281 281 281 281 281 281 281 281 281 281 281 282 282 282 282 283 283 282 282 282 282 282 282 282 282 282 282 281 281 280 280 280 280 279 279 279 279 279 279 278 278 277 277 276 276 276 276 275 275 274 274 273 273 272 271 270 270 268 267 267 267 267 266 266 266 266 265 265 264 264
263 264 265 265 266 267 268 269 271 272 274 275 276 278 279 280 280 281 280 280 280 280 280 280 280 280 281 281 282 282 282 282 281 281 281 281 281 281 281 281 281 281 280 280 279 279 278 278 278 277 277 277 277 277 277 277 277 276 276 276 276 275 275 275 274 273 273 272 271 270 269 269 267 267 266 267 267 267 266 266 265 265 264 264 263
263 264 264 265 266 266 267 269 270 272 273 274 275 277 278 279 280 280 280 280 280 280 280 280 279 279 280 280 281 281 281 281 281 281 280 280 280 280 280 280 279 279 279 279 278 278 277 277 276 276 275 275 275 275 275 275 276 276 276 276 275 275 275 274 274 273 272 271 270 269 268 267 267 267 267 267 267 266 266 265 265 264 264 263 263
263 264 264 265 265 266 267 269 270 272 273 274 275 276 278 279 279 279 279 279 279 279 279 279 279 279 279 280 280 281 281 281 280 280 280 279 279 279 279 278 278 278 277 277 277 276 276 276 275 274 274 274 274 274 274 274 274 274 274 274 274 274 274 273 272 272 271 270 269 268 268 267 267 267 267 267 266 266 265 265 264 264 263 263 263
263 264 264 265 265 267 268 269 270 271 272 273 275 276 277 278 278 279 279 279 278 278 278 278 278 278 278 279 279 280 280 280 279 279 279 278 278 278 277 277 277 276 276 276 276 275 275 275 274 274 273 273 274 274 273 273 273 273 273 273 272 272 272 271 270 270 269 268 268 268 268 267 267 267 266 266 266 265 265 264 264 264 263 263 263
263 264 264 265 266 267 268 269 270 271 272 273 274 275 276 277 278 278 278 278 278 277 277 277 277 277 278 278 278 279 279 279 278 278 277 277 277 277 276 276 276 275 275 275 274 274 274 273 273 273 273 273 273 273 273 272 272 271 271 271 270 270 269 269 268 268 268 267 267 267 267 267 267 266 266 266 265 265 264 264 264 263 263 262 262
264 264 265 266 266 267 268 269 269 270 272 272 273 274 275 276 277 277 277 277 277 276 276 276 275 276 277 277 277 277 278 277 277 276 276 275 275 275 275 275 274 274 273 273 273 272 272 271 271 271 271 271 271 270 270 270 269 269 269 268 268 268 268 267 267 267 267 267 267 267 266 266 266 266 266 265 265 265 264 264 263 263 262 262 262
263 264 264 265 266 266 267 268 269 270 271 271 272 273 274 275 275 276 276 275 275 275 275 274 274 275 275 275 275 276 276 275 275 275 274 274 274 274 273 273 272 271 271 271 270 270 269 269 268 268 268 268 268 268 268 268 268 268 267 267 267 267 267 267 267 267 266 266 266 266 266 266 266 265 265 265 264 264 263 263 263 262 262 262 261
263 263 263 264 264 265 266 266 267 268 269 270 271 271 272 273 273 273 274 274 274 273 273 273 273 273 274 274 274 274 274 273 273 273 273 273 272 272 271 271 270 269 269 268 268 268 268 267 267 267 267 268 268 268 267 267 267 267 267 267 266 266 266 266 266 266 266 266 266 266 266 265 265 265 265 264 264 263 263 262 262 262 261 261 261
262 262 263 263 263 263 264 265 265 266 267 268 269 270 270 270 271 271 272 272 272 272 272 272 272 272 272 272 272 272 272 272 272 272 272 272 271 271 270 270 269 268 268 267 267 267 267 267 267 267 267 267 267 267 267 266 266 266 266 266 266 266 266 266 266 266 266 266 266 265 265 265 265 264 264 264 263 263 262 262 261 261 261 260 260
Wind_Speed
22 22 22 22 22 22 22 21 19 19 19 20 22 23 24 26 27 27 28 29 29 29 30 31 31 31 31 31 31 31 30 30 29 29 31 33 34 35 35 34 35 36 36 37 37 35 35 36 38 39 40 40 40 39 40 42 42 42 40 39 38 37 35 30 20 15 15 16 15 16 18 20 21 24 28 31 33 35 34 33 32 33 31 27 24
24 23 23 23 23 23 24 24 23 22 22 22 23 24 25 25 26 26 28 28 28 29 31 31 31 32 32 33 33 33 33 32 31 31 31 33 34 35 35 35 36 37 36 37 38 36 35 35 36 37 38 38 38 38 40 40 40 40 39 38 38 38 38 35 27 19 15 15 15 16 17 19 22 24 28 31 33 34 33 32 31 31 28 24 23
25 25 25 25 25 25 25 25 25 25 25 25 25 25 26 26 26 26 27 27 27 29 30 31 32 32 33 34 34 34 35 34 34 33 33 34 34 35 35 35 36 37 38 38 38 37 35 34 35 36 36 36 37 37 39 39 38 38 38 39 39 39 38 37 32 25 18 15 16 18 19 21 22 24 28 29 31 32 32 30 29 27 24 22 23
28 28 27 27 27 27 27 27 26 26 26 26 26 26 26 26 26 27 27 27 27 27 28 30 31 32 34 35 35 36 36 36 35 35 35 35 35 35 35 35 36 37 38 38 37 36 36 35 34 35 35 35 36 36 37 37 37 37 37 37 38 38 38 37 36 31 22 15 16 18 21 22 22 24 27 27 28 29 30 29 27 25 23 23 23
29 29 29 29 28 29 29 29 29 29 28 28 28 27 27 28 28 27 28 28 28 27 28 29 30 32 33 34 36 36 37 37 37 37 37 36 36 37 36 36 37 37 38 38 37 36 36 35 35 34 34 35 35 35 35 35 35 36 36 36 36 37 36 34 35 32 25 17 15 16 18 21 20 22 27 28 28 27 27 27 25 24 23 23 21
28 29 29 29 30 30 30 30 31 30 30 30 29 28 28 28 28 28 28 29 29 28 29 29 29 31 33 34 35 36 37 37 37 38 38 37 37 37 37 37 37 37 37 37 37 37 36 35 35 35 35 34 34 33 33 34 34 35 35 35 35 34 33 31 30 29 25 20 17 18 19 20 20 21 25 28 30 30 27 24 22 22 23 22 19
27 28 28 29 29 29 30 30 30 30 30 30 30 29 29 28 28 28 28 29 30 30 30 30 30 31 32 33 34 36 36 37 38 38 38 38 38 37 37 37 37 37 37 37 37 36 35 36 36 35 35 35 35 34 33 33 34 34 35 35 33 31 29 28 27 26 23 20 18 19 20 19 20 23 25 27 28 29 29 26 22 20 20 19 17
27 28 28 29 29 29 29 29 29 29 29 29 30 30 29 29 28 28 28 29 31 31 32 32 31 31 32 33 34 34 35 37 38 38 38 38 38 38 37 36 36 36 36 36 37 36 35 35 36 36 36 36 36 35 34 34 33 33 33 32 31 29 27 26 24 23 22 20 18 20 21 20 21 24 26 26 25 24 27 27 23 20 18 16 16
26 26 26 27 28 28 28 29 29 29 29 29 29 29 29 29 29 29 29 29 29 30 31 32 32 33 33 34 34 34 35 37 37 37 38 38 38 38 37 36 36 36 36 36 36 36 35 34 35 35 35 36 35 34 34 33 32 32 32 31 29 28 26 24 23 22 21 19 18 20 21 20 23 26 26 25 25 24 24 24 21 19 19 17 16
26 26 26 26 27 27 28 28 29 29 29 29 29 29 29 29 29 29 29 30 29 29 28 29 31 32 34 34 35 35 35 36 36 36 36 37 38 38 37 36 35 35 35 36 36 36 34 32 33 34 34 33 33 32 32 31 31 32 32 30 30 28 26 24 23 23 22 19 20 22 20 18 24 28 26 25 25 25 24 22 19 18 19 17 14
28 28 28 28 28 29 29 30 30 30 30 30 30 29 29 29 28 28 28 29 29 29 29 30 30 31 32 33 34 35 36 36 36 35 36 36 36 37 36 36 35 35 35 35 36 35 33 31 31 32 32 31 30 30 30 30 30 29 29 29 29 28 27 25 25 25 24 21 21 22 20 19 22 25 24 24 25 24 24 23 22 22 21 17 12
32 32 31 32 33 33 34 35 34 33 33 33 33 32 31 31 30 30 29 29 28 29 30 31 32 31 31 32 33 34 35 35 35 35 35 34 34 35 36 36 35 35 35 35 35 34 32 30 30 31 31 29 28 28 27 27 27 26 26 27 26 26 27 27 26 26 26 22 21 22 22 22 23 24 25 26 26 24 23 23 24 25 23 18 13
34 34 35 36 37 38 39 40 40 40 39 38 38 36 35 34 33 33 33 32 30 30 30 31 32 32 32 33 34 35 35 34 33 33 34 34 33 33 35 35 35 35 35 34 34 33 31 28 28 29 29 28 26 25 25 24 24 23 23 23 23 23 24 25 25 26 27 27 25 24 25 26 27 27 28 29 27 25 24 24 25 24 22 18 15
33 34 35 36 38 39 40 41 42 43 42 42 42 41 40 39 37 37 36 35 34 33 33 32 33 32 32 33 35 36 36 34 32 32 32 32 32 32 33 34 34 34 34 33 32 31 29 28 28 29 28 26 25 24 23 22 21 21 21 20 20 20 21 24 24 24 26 29 28 27 28 29 29 30 30 30 29 28 27 27 25 23 20 17 15
31 33 35 37 38 39 40 41 42 42 43 43 43 43 42 41 40 39 38 37 36 36 35 34 34 33 33 33 35 38 38 35 33 32 31 31 30 31 32 33 33 34 33 32 31 30 28 28 28 28 27 26 25 23 22 21 19 20 20 19 19 20 21 22 23 22 24 27 27 27 27 27 27 29 31 30 29 28 26 24 24 22 19 16 15
31 33 35 36 38 38 39 40 41 41 41 41 41 41 40 40 39 39 39 38 37 36 36 36 35 34 34 33 34 38 38 36 34 33 31 30 29 29 30 31 32 33 32 31 30 29 29 28 27 27 26 25 24 22 20 19 19 20 21 21 22 22 21 20 20 21 21 22 22 22 24 24 24 25 29 29 27 25 22 20 20 21 21 18 16
32 33 35 36 37 37 37 38 39 39 38 38 39 38 38 38 38 37 37 39 38 37 37 37 36 35 35 34 33 36 38 35 33 33 31 29 28 29 29 30 31 31 31 30 29 29 28 27 26 26 25 24 22 20 19 20 21 23 24 24 25 23 21 20 20 19 19 20 20 20 22 23 21 21 24 25 25 24 24 23 23 24 22 16 12
32 34 35 36 36 37 37 36 37 37 37 37 37 37 37 37 36 35 35 36 38 37 36 36 37 35 34 34 33 35 37 35 32 32 31 28 27 28 28 29 29 30 29 28 27 27 27 26 25 24 24 22 21 20 20 22 25 27 28 28 27 25 24 24 22 20 19 20 20 20 20 20 20 20 23 24 23 23 24 24 25 25 22 16 13
31 33 34 35 35 36 36 36 35 35 36 36 35 36 36 36 35 35 34 35 36 37 35 35 37 36 34 34 34 33 35 35 31 30 30 28 27 27 28 28 27 27 26 26 26 26 26 25 23 23 22 22 21 20 22 25 28 29 30 30 28 27 28 28 27 26 25 25 24 23 22 21 22 23 22 21 21 20 19 19 20 22 21 19 17
31 31 33 33 34 35 35 35 35 34 34 35 35 35 35 35 35 35 35 35 35 36 35 34 36 36 34 33 33 32 32 33 31 28 27 26 25 26 27 26 25 25 24 25 25 25 24 23 22 22 22 21 21 22 24 28 30 31 32 32 30 30 31 31 31 30 30 29 27 26 25 24 23 23 22 20 19 18 16 14 14 17 17 18 20
30 31 32 33 34 35 35 35 35 35 34 34 35 36 35 34 35 34 35 35 35 36 36 34 34 36 35 32 32 31 30 30 29 26 24 24 23 24 25 26 26 25 25 25 24 24 23 23 22 22 20 20 21 22 24 29 32 33 34 34 33 33 34 32 31 31 30 29 28 27 26 25 24 23 22 21 19 17 16 14 12 13 13 15 18
31 32 33 33 34 34 34 34 34 35 34 33 34 36 35 34 33 33 32 33 34 35 35 33 33 35 35 32 30 30 28 27 27 26 24 23 22 22 24 26 26 25 24 24 23 22 22 22 21 20 20 20 21 22 24 28 32 33 31 30 31 34 34 33 31 30 29 29 28 27 26 26 25 24 22 21 19 17 16 15 13 13 12 12 13
31 32 33 34 34 34 35 35 34 34 34 33 32 34 35 34 33 32 30 30 31 32 32 31 31 33 34 32 30 28 27 26 26 25 24 23 22 22 22 24 24 24 24 24 23 22 21 21 20 19 20 21 22 23 23 26 30 30 28 28 32 34 34 32 31 30 29 28 28 27 27 26 26 24 22 21 19 17 16 15 13 13 13 12 11
31 33 34 34 35 35 36 36 36 35 34 33 31 33 33 33 33 31 29 27 28 29 30 29 28 29 31 31 30 29 27 26 26 25 25 24 22 21 22 22 21 23 25 25 24 22 21 21 20 20 22 22 23 24 24 26 29 29 27 29 34 35 34 32 31 30 28 28 27 27 27 26 25 24 23 21 19 17 16 14 13 13 12 11 10
32 34 35 35 36 36 37 37 37 36 34 32 31 32 32 32 32 32 29 27 26 26 27 27 25 25 26 27 29 29 27 26 25 25 24 23 22 21 21 20 19 21 22 23 22 21 20 20 19 20 21 20 22 24 25 27 29 28 28 31 34 34 33 32 31 29 28 27 27 26 25 24 24 23 21 20 18 17 16 14 13 12 11 9 8
31 33 33 34 35 35 35 37 37 36 34 32 31 31 30 30 31 32 30 27 26 25 25 24 23 22 23 24 25 25 24 23 24 24 23 21 21 19 18 18 18 18 19 20 20 19 18 18 18 18 19 19 21 25 26 27 28 27 28 32 33 33 31 31 30 29 28 26 26 25 24 23 22 21 20 19 18 16 15 14 13 11 9 8 7
30 32 32 32 33 32 32 34 34 34 34 32 31 31 31 29 29 31 30 28 26 24 23 21 19 19 20 21 22 23 22 21 21 22 21 20 19 17 15 16 16 16 16 17 17 16 15 15 15 17 18 19 21 23 24 25 27 27 29 31 32 30 29 29 29 29 27 26 25 24 24 23 22 21 20 19 18 16 14 12 11 10 8 7 6
29 32 31 30 31 30 29 31 31 32 33 32 31 31 31 29 29 30 29 27 27 26 24 21 20 19 20 21 21 21 20 20 20 20 19 17 16 15 14 14 14 14 14 14 13 12 12 13 14 17 19 20 20 22 23 25 27 28 28 29 29 28 26 26 25 24 24 24 24 24 24 23 23 22 22 20 18 16 13 11 10 9 8 7 6
30 31 31 29 29 29 29 29 29 30 32 33 32 32 31 28 28 31 30 27 25 26 27 26 25 23 23 23 21 20 20 20 20 19 17 16 15 15 15 15 15 14 13 12 11 11 13 14 16 18 19 20 21 23 25 26 26 26 26 26 26 25 25 24 23 22 22 22 23 24 25 25 24 23 22 20 18 15 13 11 10 9 8 7 7
30 30 29 28 30 30 31 31 30 29 30 31 32 34 33 29 27 28 30 29 26 24 26 27 27 26 25 25 24 22 22 22 19 17 15 15 15 15 15 15 14 13 12 11 11 13 14 14 14 16 18 19 20 21 24 25 25 24 24 25 26 26 25 24 23 22 21 22 23 25 26 26 25 24 23 21 18 15 14 12 10 9 8 8 8
27 27 27 28 29 30 31 32 31 31 30 30 30 31 34 34 30 27 26 27 26 25 24 25 25 25 24 25 25 23 22 21 18 15 13 13 13 14 13 13 12 11 10 11 13 13 11 10 11 14 17 17 18 20 23 25 25 24 24 24 24 25 25 23 22 21 21 22 23 24 25 25 25 25 23 20 18 16 14 12 10 9 8 8 9
25 26 27 27 29 29 30 30 31 30 30 29 28 27 28 30 32 30 26 23 23 23 23 23 24 24 23 22 22 21 20 18 15 13 12 13 13 13 12 12 11 10 11 13 13 11 9 9 12 14 16 16 18 20 22 23 24 25 25 24 23 22 22 21 20 20 21 22 22 23 23 24 24 23 21 19 17 16 14 12 10 9 9 9 9
26 27 27 26 27 28 28 27 28 28 28 27 26 25 23 23 25 28 28 24 22 22 22 21 21 21 20 19 18 17 16 14 12 11 12 13 13 12 11 11 11 11 14 16 14 11 11 12 13 14 16 17 18 20 21 21 23 24 23 23 23 21 20 19 18 19 19 19 20 21 22 22 22 21 20 18 16 15 14 12 11 9 9 9 10
28 28 26 25 27 29 28 26 27 27 27 27 25 24 24 23 22 23 24 22 20 20 21 20 19 18 17 16 15 14 13 12 12 12 12 13 12 11 10 11 11 12 15 17 16 14 15 15 14 15 16 17 19 20 20 20 21 22 21 21 21 20 19 18 18 18 18 18 18 20 21 21 21 20 19 18 16 14 13 12 11 10 10 10 11
28 27 25 24 25 27 27 27 27 27 27 27 26 24 24 24 23 22 21 20 19 19 20 20 19 17 16 15 13 13 12 12 12 12 13 12 11 11 11 12 12 13 15 16 15 14 16 17 16 16 17 18 20 20 20 20 21 21 20 19 18 18 18 18 17 17 17 17 18 19 19 20 19 18 17 16 15 14 13 12 11 10 10 11 11
29 29 27 26 25 27 29 29 29 29 29 29 28 27 26 25 24 23 22 21 21 20 20 19 18 15 13 12 11 11 11 11 12 13 12 11 11 12 13 12 12 14 15 15 14 13 14 15 16 16 16 17 18 19 19 19 19 18 17 16 16 17 18 18 18 17 17 17 17 18 18 19 18 17 15 14 14 13 12 11 11 11 11 11 10
31 31 29 28 28 30 31 31 30 30 30 29 28 27 26 25 24 23 22 22 21 20 19 18 15 13 11 11 10 10 10 10 11 11 10 10 11 13 14 12 13 15 15 14 14 13 13 13 14 15 15 16 17 17 17 17 17 16 15 14 15 15 16 17 17 17 17 17 17 17 17 17 17 16 15 14 14 14 13 12 11 11 11 10 10
32 30 29 30 30 30 30 30 29 27 27 28 27 26 25 25 23 22 22 21 20 19 18 16 14 13 13 12 10 10 9 10 11 11 10 11 13 14 14 13 14 15 15 13 13 13 13 13 14 14 15 16 16 16 16 15 15 14 14 15 15 15 16 17 17 17 17 17 17 17 17 17 16 15 15 15 15 15 14 13 12 11 11 11 11
31 31 29 28 27 26 26 26 26 25 25 26 26 25 25 24 22 21 20 20 19 18 17 16 15 14 14 12 11 11 10 12 13 12 10 12 14 16 16 15 14 15 14 13 13 12 12 13 13 13 14 15 15 14 14 14 14 14 15 17 17 18 18 19 19 18 17 16 16 16 16 16 16 15 15 15 14 13 13 12 11 11 11 10 10
31 32 29 24 23 23 24 24 24 25 25 25 26 25 24 23 22 21 20 19 18 18 17 16 16 15 14 13 13 12 11 12 13 12 11 12 14 16 16 16 15 15 15 14 13 11 11 12 12 11 12 12 12 12 13 13 14 15 16 17 18 19 20 20 19 18 17 16 15 16 17 17 17 16 15 14 13 11 11 10 10 9 9 10 10
30 29 27 24 23 24 24 24 23 24 24 26 26 26 25 24 23 21 20 19 18 18 17 17 16 16 14 14 15 14 12 12 14 14 13 13 13 14 15 14 14 13 13 12 12 10 9 9 9 9 10 10 11 11 12 13 14 16 17 18 18 19 19 19 18 17 16 15 16 17 17 17 16 15 14 13 12 10 9 9 9 9 10 10 11
29 27 26 25 23 23 23 23 23 24 24 25 25 25 25 25 23 22 21 20 19 17 17 16 15 14 13 14 16 15 13 14 16 15 14 14 13 13 13 13 12 11 10 9 9 8 8 8 8 9 9 10 10 11 12 13 14 16 17 18 19 19 19 18 17 16 16 16 16 17 16 16 15 13 12 11 10 10 9 9 10 11 11 11 11
27 25 25 25 24 23 24 25 25 25 25 25 25 26 26 25 24 22 21 20 19 18 17 16 15 13 12 13 16 16 15 15 16 15 14 14 13 12 12 12 11 10 9 8 7 7 7 7 8 8 9 9 9 10 10 12 13 15 17 18 18 17 17 17 17 17 17 17 16 16 15 14 13 13 12 11 10 10 10 11 12 12 12 12 11
28 27 26 25 25 25 25 25 25 25 26 27 27 28 27 25 24 22 20 19 19 19 18 18 17 16 15 15 16 17 17 16 16 15 15 14 13 12 12 11 10 9 9 8 7 7 6 6 7 9 10 10 10 10 10 11 12 13 14 14 15 15 15 15 15 16 16 16 16 16 15 14 13 12 11 11 11 12 12 13 13 12 12 12 11
30 28 26 25 25 25 25 25 26 28 28 27 26 26 25 24 23 21 20 20 20 19 19 19 19 19 18 17 17 17 18 18 17 17 16 16 15 14 12 11 10 9 8 8 7 7 6 6 7 9 11 13 13 12 12 11 11 10 10 10 11 12 12 12 13 13 14 14 14 14 13 13 12 12 12 12 12 12 12 12 12 12 12 12 12
30 30 30 29 27 26 25 26 28 29 28 26 24 23 22 22 21 20 20 20 19 19 19 20 20 20 19 18 18 19 19 19 19 18 17 16 15 14 13 12 10 8 8 7 7 7 7 7 8 10 11 13 14 13 13 12 12 11 10 10 10 10 11 11 12 12 12 12 12 12 12 12 12 12 12 11 11 11 11 11 12 12 12 13 13
30 31 32 31 27 25 26 27 28 28 26 25 23 22 21 20 19 19 19 19 19 19 20 20 20 20 19 19 19 19 20 20 20 19 18 16 15 13 12 10 9 8 8 9 9 9 9 10 10 11 11 12 13 12 12 11 11 11 10 10 10 10 10 10 11 10 10 10 10 10 10 11 10 11 11 11 11 11 11 11 12 12 12 12 13
28 28 28 26 24 25 26 26 25 25 24 23 22 22 20 19 17 17 17 17 18 18 19 19 19 19 18 18 19 20 20 20 19 18 17 15 13 12 10 9 9 9 10 10 10 10 10 11 11 11 11 11 11 10 10 10 9 9 9 9 9 9 10 10 10 10 10 10 10 9 10 10 10 10 10 10 11 11 11 11 12 12 12 12 13
25 24 24 23 23 24 24 24 23 23 22 21 21 20 18 15 14 14 14 15 16 16 17 17 17 17 17 17 18 19 20 20 19 17 16 14 12 11 10 9 10 10 11 11 11 11 11 11 10 10 10 9 9 9 9 9 9 9 9 10 10 10 10 10 9 9 9 9 9 9 9 9 9 9 10 10 10 10 11 11 11 12 11 12 13
23 22 21 21 21 22 22 21 20 20 19 18 16 15 13 11 10 10 10 11 12 13 14 15 15 15 16 17 18 19 19 18 16 15 13 12 11 11 11 11 11 11 11 11 11 10 10 10 9 9 9 9 9 9 9 10 10 10 10 10 10 9 9 9 9 9 8 9 9 9 9 9 9 9 10 10 10 11 11 12 12 12 12 13 13
22 21 21 21 21 21 21 20 19 17 16 14 11 9 8 7 6 6 7 9 10 11 12 13 13 14 14 15 16 17 16 15 13 12 12 12 12 12 12 12 12 11 11 11 10 10 9 9 9 9 9 9 10 10 10 10 10 9 9 9 9 9 9 9 8 8 8 9 9 9 9 9 9 10 10 11 11 12 12 12 12 13 13 13 14
Wind_Direction
14 8 2 358 354 352 348 344 339 331 325 318 312 311 308 303 300 296 292 290 287 285 283 282 281 279 277 275 272 270 267 266 265 261 259 259 260 261 261 259 257 258 258 258 258 257 256 256 256 255 252 249 246 245 244 244 243 242 240 239 237 236 234 232 238 250 245 239 235 233 231 227 222 222 221 218 214 212 213 213 211 211 211 208 205
15 10 8 6 2 360 356 352 348 342 337 331 325 322 319 315 311 304 299 297 293 288 286 285 283 281 278 275 273 272 270 267 265 261 258 258 259 259 259 257 257 257 257 256 256 255 255 256 258 257 254 249 247 246 245 243 242 241 239 238 238 237 234 230 232 240 239 228 223 223 221 217 214 214 214 212 208 206 206 206 206 208 207 203 201
12 9 8 8 6 5 3 359 354 349 345 340 336 332 328 324 318 311 307 305 299 294 291 288 285 281 278 276 274 273 272 270 267 263 260 259 259 259 257 256 256 256 256 257 257 256 255 257 260 261 256 251 248 247 247 245 243 241 240 239 238 238 236 232 230 233 234 220 211 211 207 204 208 208 208 207 204 200 200 200 199 199 198 198 201
8 7 6 6 4 3 2 359 357 354 350 345 341 338 333 330 325 319 315 311 305 300 296 291 286 282 278 277 276 274 273 271 269 265 263 262 261 260 258 256 256 256 256 257 259 258 257 258 263 264 259 253 251 249 248 246 244 242 242 240 239 239 237 234 230 231 232 214 200 207 203 197 201 203 200 197 196 195 194 193 192 191 192 196 201
8 6 3 1 359 358 357 355 354 353 351 347 343 339 336 333 329 325 320 315 310 306 300 294 289 285 281 280 278 276 275 273 270 268 267 266 264 262 260 258 257 257 258 258 259 259 259 262 267 267 260 254 252 250 249 247 246 244 242 240 240 239 237 234 232 231 229 211 191 194 196 192 190 192 192 188 182 182 185 186 185 186 189 194 199
11 8 5 2 358 355 353 351 349 348 347 346 342 339 337 334 331 328 324 318 313 308 303 299 293 289 286 284 281 279 277 274 271 270 269 268 266 264 262 260 258 258 258 259 260 259 261 266 269 266 260 255 254 253 252 250 248 245 243 242 241 239 236 233 231 228 224 213 194 182 183 185 178 175 184 185 177 172 171 171 176 184 191 195 199
12 11 8 5 2 359 355 352 348 345 343 341 339 337 335 333 331 328 324 318 314 310 306 302 298 294 290 287 283 281 279 275 272 271 270 268 266 264 263 261 260 259 260 260 260 260 264 269 270 266 262 260 259 258 255 252 250 247 245 244 241 237 233 231 228 223 216 206 193 179 174 176 173 169 175 179 175 172 168 164 169 182 192 199 203
10 9 7 5 3 1 358 355 351 348 344 340 337 334 332 331 329 326 323 319 315 313 309 306 302 297 293 289 286 283 279 275 272 270 269 268 266 264 262 261 260 260 261 261 259 260 265 269 268 266 265 264 263 262 258 255 252 249 247 245 240 235 231 226 221 215 207 196 184 174 166 166 168 166 167 168 167 171 175 174 173 179 188 196 203
7 7 5 3 1 359 357 355 354 352 350 346 342 337 333 330 327 325 323 320 317 314 310 307 303 299 296 292 289 285 279 276 273 271 269 268 266 264 262 261 260 260 261 261 260 260 263 267 268 267 267 267 265 264 261 258 254 251 249 245 238 232 226 220 213 205 198 189 176 167 164 164 164 162 164 169 171 174 179 179 176 181 186 186 189
3 3 2 0 358 356 354 353 352 351 350 348 346 342 338 334 330 327 325 322 320 317 312 306 302 299 297 295 291 286 281 278 276 273 270 268 266 264 262 261 260 260 260 260 260 260 262 267 271 271 269 268 266 263 261 259 256 254 253 248 240 230 219 211 207 200 193 186 176 169 167 168 170 168 169 175 178 178 178 177 173 172 173 170 176
360 360 359 357 356 355 353 351 350 349 347 346 344 343 341 338 335 332 329 326 323 319 313 308 304 301 298 295 291 287 284 282 280 277 273 269 265 263 262 262 260 259 259 259 259 260 262 268 273 273 269 267 265 263 261 258 256 255 252 249 245 236 223 211 204 197 192 188 180 175 172 170 173 175 172 174 178 181 180 179 173 166 164 163 168
358 357 356 355 354 353 352 350 349 348 346 345 343 342 341 339 338 335 332 330 326 320 315 311 307 303 299 294 291 288 286 285 282 280 277 272 267 264 262 261 259 258 258 257 258 259 261 266 271 270 267 266 265 263 260 257 255 252 248 245 243 239 232 225 215 203 193 184 177 177 176 171 172 177 177 176 178 181 183 183 181 177 173 171 168
356 354 353 353 352 351 350 348 347 347 346 344 343 342 341 340 340 338 335 332 328 323 319 314 310 306 301 296 293 291 290 288 285 282 279 275 270 266 263 261 259 258 257 256 257 258 260 263 266 266 265 265 263 261 259 256 252 246 241 238 236 232 229 227 223 215 203 192 182 181 181 177 176 180 184 183 181 180 180 182 183 181 178 176 174
354 351 350 350 349 348 347 346 345 344 344 343 341 341 341 340 339 339 336 333 329 325 322 317 313 309 305 300 297 294 292 290 288 284 281 277 272 267 264 262 260 258 257 257 257 258 259 262 264 264 263 261 259 258 256 251 243 234 228 225 222 216 213 212 213 211 205 198 193 188 186 187 186 187 189 192 191 187 181 179 179 179 178 178 179
352 349 348 347 346 345 344 343 343 342 341 340 339 338 338 337 337 337 335 332 329 325 322 318 315 312 308 304 300 297 295 294 291 287 283 278 274 268 264 262 259 258 257 257 257 258 261 263 263 261 259 258 258 256 251 242 232 221 212 205 198 194 196 200 203 201 199 200 200 195 191 194 196 194 194 195 195 192 187 184 182 179 174 169 169
350 347 346 345 343 342 341 340 339 339 338 337 336 335 335 333 334 334 332 329 327 324 321 318 315 312 310 306 301 298 298 297 294 291 287 281 275 268 264 261 258 257 257 257 258 260 261 261 260 258 256 255 255 251 243 233 219 203 191 182 179 179 180 185 192 195 194 194 197 198 196 196 197 196 194 192 189 187 183 178 177 173 166 159 159
347 344 342 341 339 338 338 336 335 335 334 334 332 331 330 329 330 331 329 326 324 322 320 318 314 311 308 305 301 298 298 298 296 293 289 284 277 269 263 260 257 256 256 257 259 261 260 259 257 254 252 251 248 240 230 219 203 188 177 170 168 166 164 170 179 185 189 190 192 195 192 187 183 184 186 185 184 183 175 167 169 171 165 158 159
342 340 338 337 336 335 334 332 332 331 330 329 328 328 327 326 326 327 325 322 320 319 318 316 313 310 307 305 302 298 297 298 296 293 290 284 277 269 263 259 256 255 256 257 258 259 258 257 254 250 247 245 240 230 219 206 193 182 173 166 161 158 158 165 170 173 176 178 176 173 170 167 165 169 175 179 181 184 180 174 174 175 171 166 165
337 334 333 332 331 330 330 328 328 327 326 325 325 324 323 323 323 324 322 319 317 316 316 314 312 310 308 306 303 299 297 298 296 293 290 285 278 269 263 257 255 255 256 256 257 257 254 252 249 245 243 241 234 224 213 200 190 181 173 164 159 159 163 166 164 157 151 148 148 149 151 155 160 165 169 175 179 184 188 186 184 183 179 174 166
332 329 327 327 327 327 326 325 324 324 323 322 322 321 320 321 321 322 321 319 317 315 314 312 310 310 309 307 305 301 298 297 296 293 289 285 279 271 263 257 255 256 256 255 254 252 249 246 243 240 238 235 227 217 207 197 189 182 176 171 167 166 166 164 160 153 147 145 147 150 152 155 160 161 164 171 175 179 186 189 190 192 190 181 175
329 326 324 324 324 324 324 323 322 322 321 321 320 319 318 319 319 320 320 319 317 314 313 312 310 309 309 308 305 303 299 296 294 291 286 281 276 270 263 260 259 259 257 255 252 248 245 242 238 233 230 227 219 206 197 195 193 186 180 178 175 169 164 158 155 154 152 150 150 151 153 156 159 161 165 171 175 178 181 182 184 193 198 194 191
327 324 321 321 320 321 321 320 319 318 318 320 318 316 316 317 317 317 318 318 316 313 311 311 309 308 308 308 306 304 301 296 292 288 283 277 274 269 264 263 263 260 256 254 250 246 243 240 236 230 223 219 210 196 190 194 194 187 182 180 174 168 162 156 154 153 152 152 152 153 155 157 160 163 168 171 173 176 181 183 186 193 201 206 206
325 321 319 319 318 318 318 318 317 316 317 318 316 313 313 315 315 315 315 315 314 311 309 310 308 306 306 307 307 306 302 297 291 286 282 277 273 269 264 263 262 257 253 252 249 246 243 239 235 229 219 211 201 191 187 190 189 185 181 177 172 167 162 157 154 154 152 152 154 156 159 162 164 166 169 171 173 176 179 182 188 194 199 205 208
322 320 320 319 318 318 318 317 317 316 317 318 314 311 312 313 313 313 312 312 310 307 306 307 305 303 303 304 305 306 303 298 291 286 282 278 273 268 263 259 254 249 248 249 247 246 243 239 234 225 215 207 197 189 185 185 185 182 178 174 171 167 162 156 155 155 153 154 157 161 164 168 170 170 171 173 174 176 179 182 187 194 198 201 204
321 320 320 319 319 319 318 317 317 317 318 317 314 311 311 311 310 309 309 308 305 302 302 302 301 299 298 298 301 303 302 299 293 288 284 280 275 269 263 256 247 245 247 248 247 246 244 241 235 224 213 204 195 188 185 183 182 179 175 173 171 166 161 157 156 156 157 159 163 165 167 171 173 173 174 176 177 178 181 182 185 190 196 198 200
319 319 318 318 318 318 316 316 316 318 318 317 313 310 308 306 306 305 304 303 301 298 297 297 296 295 293 293 296 299 300 299 295 292 288 282 275 269 261 252 246 247 250 250 248 245 241 237 231 220 209 199 192 188 184 182 179 174 172 174 170 165 162 162 162 163 165 166 167 167 168 172 175 174 175 178 180 181 183 184 185 187 194 200 201
317 315 314 315 315 315 314 313 313 315 315 315 314 311 307 305 302 300 299 299 298 296 293 291 289 288 289 290 293 295 297 297 296 293 289 281 275 269 259 249 244 244 245 244 242 238 232 228 223 212 201 194 191 185 179 174 170 166 168 172 171 168 169 170 170 171 169 167 167 169 171 173 173 172 175 179 179 178 182 190 192 190 196 206 209
316 313 313 313 312 312 312 311 311 312 311 312 311 309 307 305 300 297 296 295 294 291 289 285 282 281 282 285 289 290 289 289 289 288 283 274 266 259 248 240 238 238 237 237 233 227 219 215 209 201 192 184 176 170 165 161 160 162 167 169 168 167 168 169 169 169 169 169 170 171 171 171 172 173 176 178 177 178 184 194 200 200 205 215 214
318 315 315 314 313 313 312 310 310 310 310 310 310 308 306 303 298 296 297 295 291 289 287 282 280 280 280 280 281 281 280 282 285 284 278 267 254 245 237 234 234 233 232 229 219 206 201 200 197 189 178 167 159 156 154 152 154 160 163 163 163 164 166 168 169 169 171 173 174 172 171 171 173 175 177 176 176 181 189 198 204 206 210 216 217
319 316 317 316 314 315 314 311 311 310 309 309 310 309 309 306 299 297 297 297 293 289 286 284 283 282 281 280 279 277 276 280 283 282 275 263 250 240 234 231 229 226 221 214 201 192 194 197 190 175 163 156 152 149 149 148 150 153 155 160 165 168 170 173 174 173 174 177 176 175 175 175 175 176 179 178 177 182 193 200 206 210 213 216 218
318 315 316 315 313 313 311 310 310 310 308 308 308 308 309 308 304 299 296 296 293 288 286 286 284 280 278 279 280 279 275 274 276 275 267 251 238 231 227 223 220 216 206 194 188 192 195 189 171 160 156 153 149 148 149 150 150 150 153 160 168 171 172 174 175 176 177 178 178 179 180 180 179 180 182 182 181 187 195 200 204 210 215 219 224
315 312 313 312 310 310 308 306 305 304 303 303 303 302 302 303 304 303 300 297 293 288 286 285 282 278 276 276 277 277 273 269 268 263 249 232 223 219 216 213 210 203 191 183 183 189 185 165 153 153 154 151 149 151 153 153 153 156 160 164 168 172 175 176 177 180 181 180 179 181 182 183 184 183 184 186 186 190 196 200 204 210 214 222 229
315 310 309 309 308 306 303 301 299 297 295 295 296 295 292 290 294 298 301 299 295 289 285 283 280 278 275 272 271 271 269 265 260 247 229 219 216 211 206 202 197 188 182 179 175 172 165 157 151 151 153 152 153 156 157 157 159 163 166 168 170 173 177 178 179 182 183 183 184 184 184 185 185 184 184 188 191 194 197 201 205 210 217 227 234
316 309 304 303 303 302 300 298 297 295 293 291 289 288 286 282 281 286 292 295 294 290 286 283 280 276 272 268 264 260 257 255 246 230 214 209 208 202 192 192 194 188 182 179 173 164 160 157 153 153 156 158 159 161 163 164 166 169 171 173 174 175 177 179 181 183 184 185 186 187 186 186 187 186 186 187 190 196 199 202 207 214 223 231 235
315 309 303 301 300 299 298 298 297 295 294 292 289 286 285 283 281 279 279 282 284 285 285 284 280 273 267 262 255 249 247 244 231 215 206 202 197 187 183 189 191 180 173 174 174 167 162 161 159 159 162 165 168 170 172 172 175 177 178 179 179 178 178 180 183 185 186 186 186 186 186 187 189 191 192 192 193 198 201 204 211 221 228 232 235
313 309 306 304 302 301 299 298 297 294 292 290 288 286 284 281 279 277 275 274 274 275 277 279 277 270 263 257 248 242 243 235 216 204 201 197 188 182 183 182 171 157 157 167 173 169 165 165 165 164 167 172 176 179 180 180 183 185 186 188 187 183 182 183 184 184 183 183 184 185 186 188 190 192 195 197 201 204 205 208 214 222 227 230 234
311 307 306 305 304 302 301 299 296 293 290 287 286 284 281 278 275 274 272 270 269 268 268 269 267 259 254 250 238 233 235 223 202 194 196 191 183 184 184 174 157 151 155 165 173 173 173 174 175 175 177 181 186 189 190 190 191 191 192 194 193 190 187 186 185 184 182 181 182 185 187 190 194 197 199 201 202 203 205 209 212 216 223 227 231
307 304 303 303 303 302 299 297 294 292 289 287 285 282 279 276 273 269 266 265 264 261 258 257 250 242 241 240 227 220 219 203 187 186 191 187 182 182 180 172 164 161 162 166 175 180 181 182 185 189 190 192 196 199 199 200 201 200 198 195 193 191 188 185 183 183 183 182 182 186 191 195 199 202 205 206 205 204 204 206 209 212 217 223 228
308 304 302 301 298 296 293 292 290 289 288 288 286 282 278 274 270 267 263 260 258 253 248 245 239 233 234 232 219 211 205 191 183 183 184 179 175 175 175 173 172 170 169 171 176 182 186 189 193 197 199 201 206 208 209 210 209 206 202 196 191 188 186 184 182 182 182 182 185 189 196 201 203 204 207 208 208 206 202 203 209 213 217 226 233
308 306 303 299 294 293 293 292 288 286 286 286 286 283 278 272 268 264 260 256 252 245 240 236 231 228 227 221 214 214 208 190 180 177 170 162 160 164 170 173 174 172 172 172 172 174 179 184 188 194 198 203 207 210 213 215 211 206 203 199 194 190 187 186 186 184 183 185 190 195 200 204 204 204 205 206 207 206 203 204 210 215 221 231 236
307 303 300 298 295 294 293 291 287 285 286 285 285 282 277 272 268 263 257 252 247 240 234 231 227 223 219 211 208 214 212 190 177 172 166 160 158 159 163 167 168 169 170 171 172 174 177 182 190 198 202 205 208 208 209 210 208 204 200 196 193 190 187 186 187 188 188 192 197 201 205 207 205 204 204 205 204 204 204 207 214 220 226 232 235
306 300 298 298 296 294 293 291 288 288 288 287 285 281 277 272 267 261 254 249 243 234 227 223 218 213 207 200 201 207 204 185 175 173 170 167 166 164 162 162 163 164 168 173 179 186 193 197 201 205 207 207 208 206 204 203 203 200 196 193 191 190 188 187 189 192 195 199 203 206 207 207 205 204 204 204 203 205 209 215 220 223 226 230 232
305 299 298 297 294 291 290 290 289 288 287 287 287 284 279 273 266 258 251 244 237 227 218 210 201 193 189 189 193 197 192 178 171 170 168 165 165 163 160 161 161 160 164 171 177 186 196 200 199 200 198 194 195 198 200 200 199 196 194 193 192 191 191 192 193 196 199 202 206 208 208 205 203 202 203 206 209 212 215 218 220 223 227 230 233
306 300 297 294 292 290 290 289 288 288 288 289 289 286 280 272 262 254 246 238 230 221 212 203 194 186 183 183 184 186 184 178 174 172 169 166 165 162 159 160 160 160 164 169 174 186 202 209 208 204 196 187 185 190 196 199 200 199 198 196 194 193 195 197 199 201 204 206 207 206 204 202 202 206 209 213 215 215 216 219 222 225 229 231 232
308 302 297 294 292 291 291 291 292 292 291 291 289 286 279 269 257 248 240 232 224 215 206 200 194 188 184 181 180 181 182 180 179 177 174 171 168 164 163 162 162 164 168 174 182 195 206 206 201 195 189 185 183 185 187 188 188 190 192 193 194 196 198 200 202 203 205 206 206 205 203 204 208 213 215 217 218 219 221 225 227 229 231 232 235
308 304 303 301 296 292 292 295 296 295 293 291 289 286 278 266 254 245 237 229 220 210 202 197 193 189 185 181 180 180 180 178 176 174 172 170 167 164 164 165 167 173 179 184 190 195 194 188 184 183 183 183 182 182 181 180 178 179 182 186 190 194 195 196 198 200 201 204 206 207 209 212 214 217 219 221 223 225 228 231 233 235 235 238 241
309 308 307 304 298 294 295 297 297 296 293 291 289 284 277 266 254 243 235 226 217 207 201 195 192 189 187 184 182 180 177 176 174 171 168 168 167 166 167 169 173 180 184 184 184 185 182 178 178 179 181 183 182 181 180 179 179 181 183 184 187 190 190 191 193 195 196 201 206 210 215 219 219 220 223 225 227 230 233 235 237 239 240 241 245
312 310 307 303 299 297 299 300 299 298 295 293 290 284 277 267 254 241 230 221 212 204 198 193 190 188 185 184 183 180 175 172 170 167 165 166 165 165 168 172 174 176 176 173 174 176 175 173 174 174 175 176 175 173 173 172 173 175 178 179 183 187 188 189 192 194 196 202 208 212 217 222 224 226 230 232 234 237 239 239 241 242 243 245 247
317 314 309 306 305 305 304 303 302 300 298 296 293 287 278 266 252 237 224 214 206 199 194 189 185 184 183 182 179 176 171 167 165 163 163 164 164 165 169 170 168 166 165 164 164 166 166 166 167 166 164 164 163 162 166 169 172 177 181 184 187 191 192 194 197 200 203 209 214 217 221 225 227 231 236 238 240 243 243 243 245 245 245 247 248
328 329 326 322 322 322 320 316 313 308 304 300 296 290 281 267 250 232 215 205 196 190 186 182 179 179 180 178 173 169 165 163 162 162 162 165 167 169 170 168 165 161 159 159 161 161 161 161 162 162 163 166 168 171 176 180 182 185 189 191 193 198 201 203 206 208 211 215 220 223 227 230 233 236 240 241 242 244 245 245 247 247 246 247 250
341 346 346 345 344 343 341 339 336 329 322 315 307 298 288 273 250 221 201 191 184 178 174 172 171 173 174 172 168 165 162 160 161 162 164 167 169 169 168 166 163 161 160 160 160 162 164 166 169 171 174 177 179 180 183 186 188 192 197 201 203 207 210 212 215 216 219 223 228 230 233 235 237 240 244 245 246 247 248 247 247 248 249 250 250